Weather History for Rockport, TX

Change the Weather History Date:

Wednesday, October 26, 2011

  Actual Average Record
Temperature  
Mean Temperature 78 °F -  
Max Temperature 86 °F 79 °F 88 °F (2004)
Min Temperature 71 °F 62 °F 46 °F (2005)
Cooling Degree Days 14    
Growing Degree Days 28 (Base 50)    
Moisture  
Dew Point 68 °F    
Average Humidity 69    
Maximum Humidity 90    
Minimum Humidity 53    
Precipitation  
Precipitation 0.00 in - - ()
Sea Level Pressure  
Sea Level Pressure 29.92 in    
Wind  
Wind Speed 7 mph (SSE)    
Max Wind Speed 14 mph    
Max Gust Speed 21 mph    
Visibility 10 miles    
Events      
Averages and records for this station are not official NWS values.
T = Trace of Precipitation, MM = Missing Value Source: NWS Daily Summary

Daily Weather History Graph

Daily Weather History Graph

Search for Another Location

Airport:

Trip Planner

Search our weather history database for the weather conditions in past years. The results will help you decide how hot, cold, wet, or windy it might be!

Date:

Astronomy

Oct. 26, 2011 Rise Set
Actual Time 7:35 AM CDT 6:48 PM CDT
Civil Twilight 7:11 AM CDT 7:12 PM CDT
Nautical Twilight 6:43 AM CDT 7:40 PM CDT
Astronomical Twilight 6:16 AM CDT 8:07 PM CDT
Moon 7:20 AM CDT (10/26) 6:38 PM CDT (10/26)
Length of Visible Light 12h 01m
Length of Day
11h 13m
Waning Crescent, 0% of the Moon is Illuminated
Oct 26
Waning Crescent
Oct 26
New
Nov 2
First Quarter
Nov 10
Full
Nov 18
Last Quarter

Hourly Weather History & Observations

Time (CDT) Temp. Heat Index Dew Point Humidity Pressure Visibility Wind Dir Wind Speed Gust Speed Precip Events Conditions
12:53 AM 75.9 °F - 69.1 °F 79% 30.01 in 10.0 mi South 6.9 mph - N/A   Clear
1:53 AM 75.9 °F - 68.0 °F 76% 29.98 in 10.0 mi South 6.9 mph - N/A   Clear
2:53 AM 75.0 °F - 68.0 °F 79% 29.97 in 10.0 mi South 4.6 mph - N/A   Clear
3:53 AM 75.0 °F - 68.0 °F 79% 29.94 in 10.0 mi South 5.8 mph - N/A   Clear
4:53 AM 75.0 °F - 68.0 °F 79% 29.94 in 10.0 mi South 6.9 mph - N/A   Clear
7:53 AM 71.1 °F - 68.0 °F 90% 29.94 in 10.0 mi Calm Calm - N/A   Partly Cloudy
8:53 AM 73.9 °F - 70.0 °F 87% 29.95 in 10.0 mi Calm Calm - N/A   Clear
10:53 AM 82.9 °F 85.0 °F 66.0 °F 56% 29.97 in 10.0 mi South 9.2 mph 17.3 mph N/A   Clear
11:53 AM 82.9 °F 85.0 °F 66.0 °F 56% 29.97 in 10.0 mi South 13.8 mph 20.7 mph N/A   Clear
12:53 PM 84.9 °F 88.2 °F 68.0 °F 57% 29.95 in 10.0 mi SSE 10.4 mph 20.7 mph N/A   Clear
1:53 PM 84.9 °F 87.6 °F 66.9 °F 55% 29.92 in 10.0 mi SSE 8.1 mph 17.3 mph N/A   Clear
2:53 PM 86.0 °F 88.8 °F 66.9 °F 53% 29.89 in 10.0 mi SSE 11.5 mph 16.1 mph N/A   Clear
3:53 PM 84.0 °F 87.0 °F 68.0 °F 58% 29.87 in 10.0 mi SSE 9.2 mph 18.4 mph N/A   Clear
4:53 PM 82.9 °F 85.0 °F 66.0 °F 56% 29.86 in 10.0 mi SSE 9.2 mph 17.3 mph N/A   Clear
5:53 PM 81.0 °F 83.3 °F 66.9 °F 62% 29.85 in 10.0 mi SSE 9.2 mph - N/A   Clear
6:53 PM 78.1 °F - 68.0 °F 71% 29.86 in 10.0 mi SSE 8.1 mph - N/A   Clear
7:53 PM 78.1 °F - 69.1 °F 74% 29.86 in 10.0 mi SSE 10.4 mph - N/A   Clear
8:53 PM 77.0 °F - 68.0 °F 74% 29.87 in 10.0 mi SSE 8.1 mph - N/A   Clear
9:53 PM 77.0 °F - 66.9 °F 71% 29.88 in 10.0 mi SSE 8.1 mph - N/A   Clear
10:53 PM 77.0 °F - 68.0 °F 74% 29.87 in 10.0 mi SSE 9.2 mph - N/A   Clear